Weather History for McCook, NE

Change the Weather History Date:

Sunday, March 31, 2013

  Actual Average Record
Temperature  
Mean Temperature 52 °F 44 °F  
Max Temperature 71 °F 59 °F 91 °F (1946)
Min Temperature 32 °F 29 °F 6 °F (1931)
Degree Days  
Heating Degree Days 14    
Growing Degree Days 2 (Base 50)    
Moisture  
Dew Point 32 °F    
Average Humidity 57    
Maximum Humidity 92    
Minimum Humidity 20    
Precipitation  
Precipitation 0.00 in 0.05 in 0.60 in (1973)
Month to date precipitation 0.29 1.36  
Year to date precipitation 1.46 2.49  
Sea Level Pressure  
Sea Level Pressure 30.03 in    
Wind  
Wind Speed 11 mph (West)    
Max Wind Speed 33 mph    
Max Gust Speed 45 mph    
Visibility 10 miles    
Events      
T = Trace of Precipitation, MM = Missing Value Source: NWS Daily Summary

Daily Weather History Graph

Daily Weather History Graph

Search for Another Location

Airport:

Trip Planner

Search our weather history database for the weather conditions in past years. The results will help you decide how hot, cold, wet, or windy it might be!

Date:

Astronomy

Mar. 31, 2013 Rise Set
Actual Time 7:27 AM CDT 8:06 PM CDT
Civil Twilight 7:00 AM CDT 8:33 PM CDT
Nautical Twilight 6:27 AM CDT 9:05 PM CDT
Astronomical Twilight 5:54 AM CDT 9:39 PM CDT
Moon 12:13 AM CDT (3/31) 10:16 AM CDT (3/31)
Length of Visible Light 13h 33m
Length of Day
12h 38m
Waning Gibbous, 77% of the Moon is Illuminated
Mar 31
Waning Gibbous
Apr 2
Last Quarter
Apr 10
New
Apr 18
First Quarter
Apr 25
Full

Hourly Weather History & Observations

Time (CDT) Temp. Windchill Dew Point Humidity Pressure Visibility Wind Dir Wind Speed Gust Speed Precip Events Conditions
12:53 AM 41.0 °F 34.3 °F 37.0 °F 86% 30.11 in 10.0 mi West 11.5 mph - N/A   Clear
1:53 AM 39.0 °F 31.4 °F 36.0 °F 89% 30.11 in 10.0 mi WNW 12.7 mph - N/A   Clear
2:53 AM 39.0 °F 31.8 °F 36.0 °F 89% 30.12 in 10.0 mi WNW 11.5 mph - N/A   Clear
3:53 AM 37.9 °F 30.5 °F 34.0 °F 86% 30.11 in 10.0 mi WNW 11.5 mph - N/A   Clear
4:53 AM 36.0 °F 32.1 °F 33.1 °F 89% 30.10 in 10.0 mi West 4.6 mph - N/A   Clear
5:53 AM 34.0 °F 29.8 °F 32.0 °F 92% 30.10 in 10.0 mi WNW 4.6 mph - N/A   Clear
6:53 AM 33.1 °F 27.7 °F 30.9 °F 92% 30.12 in 10.0 mi West 5.8 mph - N/A   Clear
7:53 AM 33.1 °F 26.1 °F 30.9 °F 92% 30.13 in 10.0 mi West 8.1 mph - N/A   Clear
8:53 AM 37.9 °F 32.7 °F 35.1 °F 89% 30.14 in 10.0 mi West 6.9 mph - N/A   Clear
9:53 AM 43.0 °F 39.5 °F 37.0 °F 80% 30.12 in 10.0 mi West 5.8 mph - N/A   Clear
10:53 AM 46.0 °F 43.1 °F 37.0 °F 71% 30.10 in 10.0 mi WSW 5.8 mph - N/A   Clear
11:53 AM 51.1 °F - 36.0 °F 56% 30.08 in 10.0 mi WSW 5.8 mph - N/A   Clear
12:53 PM 57.0 °F - 35.1 °F 44% 30.05 in 10.0 mi WSW 12.7 mph 18.4 mph N/A   Clear
1:53 PM 63.0 °F - 33.1 °F 33% 30.01 in 10.0 mi West 10.4 mph 24.2 mph N/A   Clear
2:53 PM 64.9 °F - 28.0 °F 25% 29.96 in 10.0 mi SSW 11.5 mph - N/A   Clear
3:53 PM 68.0 °F - 28.0 °F 22% 29.93 in 10.0 mi SW 11.5 mph 18.4 mph N/A   Clear
4:21 PM 68.0 °F - 28.4 °F 23% 29.92 in 10.0 mi West 11.5 mph 21.9 mph N/A   Clear
4:53 PM 70.0 °F - 28.0 °F 21% 29.89 in 10.0 mi WSW 15.0 mph 19.6 mph N/A   Partly Cloudy
5:53 PM 70.0 °F - 28.0 °F 21% 29.87 in 10.0 mi WSW 16.1 mph - N/A   Clear
6:53 PM 70.0 °F - 27.0 °F 20% 29.86 in 10.0 mi West 6.9 mph - N/A   Mostly Cloudy
7:53 PM 66.0 °F - 27.0 °F 23% 29.87 in 10.0 mi NW 15.0 mph - N/A   Scattered Clouds
8:53 PM 55.9 °F - 25.0 °F 30% 29.91 in 10.0 mi North 11.5 mph - N/A   Clear
9:53 PM 52.0 °F - 30.0 °F 43% 29.96 in 10.0 mi NNE 33.4 mph 44.9 mph N/A   Clear
10:53 PM 45.0 °F 36.4 °F 27.0 °F 49% 30.06 in 10.0 mi NE 23.0 mph 34.5 mph N/A   Clear
11:53 PM 41.0 °F 31.4 °F - N/A% 30.10 in 10.0 mi NE 21.9 mph 33.4 mph N/A   Clear